Location: Acequia del Cap
(41.7000°N, 0.6167°E)
Time: 14:54:13
(UTC+00:00)

Cosmos 1607 - Pass Details

Date: 07 August 2020
Orbit: 911 x 991 km, 65.0° (Epoch: 22 September)

Event Time Altitude Azimuth Distance (km) Brightness Sun altitude
Rises 02:17:08 0° 328° (NNW) 3,692 7.3 -24.3°
Reaches altitude 10° 02:19:43 10° 330° (NNW) 2,748 6.6 -24.0°
Maximum altitude 02:26:11 74° 56° (NE) 1,030 4.2 -23.3°
Drops below altitude 10° 02:32:38 10° 141° (SE) 2,744 6.2 -22.5°
Sets 02:35:13 0° 143° (SE) 3,686 6.9 -22.2°
